User: anonymous
Location: Chequamegon National Forest
(46.1070°N, 90.8420°W)
Time: 05:36:13
(UTC-05:00)
Language:

ISS - Orbit

View from above orbital plane
View from above orbital plane
View from above satellite
View from above satellite

Ground track
Ground track

The orbit data is extracted from the following two-line orbital elements,

1 25544U 98067A   14108.23313301  .00022225  00000-0  39745-3 0  1053
2 25544 051.6491 036.6997 0003613 299.6224 212.7090 15.49914626882023
Epoch (UTC): 18 April 2014 05:35:42
Eccentricity: 0.0003613
inclination: 51.6491°
perigee height: 414 km
apogee height: 419 km
right ascension of ascending node: 36.6997°
argument of perigee: 299.6224°
revolutions per day: 15.49914626
mean anomaly at epoch: 212.7090°
orbit number at epoch: 88202

The dashed part of the orbit path shows where the satellite is in the earth's shadow,  

DLR